Probability
0 0 0 0 0 0 0 0 0 0 0 0 0 0 0 0 0 0 0 0 0 0 0 0 0 0 0 0 0 0 0 0 0 0 0 0 0 0 0 0 0 0 0 0
0 0 0 0 0 0 0 0 0 0 0 0 0 0 0 0 0 0 0 0 0 0 0 0 0 0 0 0 0 0 0 0 0 0 0 0 0 0 0 0 0 0 0 0
0 0 0 0 0 0 0 0 0 0 0 0 0 0 0 0 0 0 0 0 0 0 0 0 0 0 0 0 0 0 0 0 0 0 0 0 0 0 0 0 0 0 0 0
0 0 0 0 0 0 0 0 0 0 0 0 0 0 0 0 0 0 0 0 0 0 0 0 0 0 0 0 0 0 0 0 0 0 0 0 0 0 0 0 0 0 0 0
0 0 0 0 0 0 0 0 0 0 0 0 0 0 0 0 0 0 0 0 0 0 0 0 0 0 0 0 0 0 0 0 0 0 0 0 0 0 0 0 0 0 0 0
0 0 0 0 0 0 0 0 0 0 0 0 0 0 0 0 0 0 0 0 0 0 0 0 0 0 0 0 0 0 0 0 0 0 0 0 0 0 0 0 0 0 0 0
0 0 0 0 0 0 0 0 0 0 0 0 0 0 0 0 0 0 0 0 0 0 0 0 0 0 0 0 0 0 0 0 0 0 0 0 0 0 0 0 0 0 0 0
0 0 0 0 0 0 0 0 0 0 0 0 0 0 0 0 0 0 0 0 0 0 0 0 0 0 0 0 0 0 0 0 0 0 0 0 0 0 0 0 0 0 0 0
0 0 0 0 0 0 0 0 0 0 0 0 0 0 0 0 0 0 0 0 0 0 0 0 0 0 0 0 0 0 0 0 0 0 0 0 0 0 0 0 0 0 0 0
0 0 0 0 0 0 0 0 0 0 0 0 0 0 0 0 0 0 0 0 0 0 0 0 0 0 0 0 0 0 0 0 0 0 0 0 0 0 0 0 0 0 0 0
0 0 0 0 0 0 0 0 0 0 0 0 0 0 0 0 0 0 0 0 0 0 0 0 0 0 0 0 0 0 0 0 0 0 0 0 0 0 0 0 0 0 0 0
0 0 0 0 0 0 0 0 0 0 0 0 0 0 0 0 0 0 0 0 0 0 0 0 0 0 0 0 0 0 0 0 0 0 0 0 0 0 0 0 0 0 0 0
0 0 0 0 0 0 0 0 0 0 0 0 0 0 0 0 0 0 0 0 0 0 0 0 0 0 0 0 0 0 0 0 0 0 0 0 0 0 0 0 0 0 0 0
0 0 0 0 0 0 0 0 0 0 0 0 0 0 0 0 0 0 0 0 0 0 0 0 0 0 0 0 0 0 0 0 0 0 0 0 0 0 0 0 0 0 0 0
0 0 0 0 0 0 0 0 0 0 0 0 0 0 0 0 0 0 0 0 0 0 0 0 0 0 0 0 0 0 0 0 0 0 0 0 0 0 0 0 0 0 0 0
0 0 0 0 0 0 0 0 0 0 0 0 0 0 0 0 0 0 0 0 0 0 0 0 0 0 0 0 0 0 0 0 0 0 0 0 0 0 0 0 0 0 0 0
0 0 0 0 0 0 0 0 0 0 0 0 0 0 0 0 0 0 0 0 0 0 0 0 0 0 0 0 0 0 0 0 0 0 0 0 0 0 0 0 0 0 0 0
0 0 0 0 0 0 0 0 0 0 0 0 0 0 0 0 0 0 0 0 0 0 0 0 0 0 0 0 0 0 0 0 0 0 0 0 0 0 0 0 0 0 0 0
0 0 0 0 0 0 0 0 0 0 0 0 0 0 0 0 0 0 0 0 0 0 0 0 0 0 0 0 0 0 0 0 0 0 0 0 0 0 0 0 0 0 0 0
0 0 0 0 0 0 0 0 0 0 0 0 0 0 0 0 0 0 0 0 0 0 0 0 0 0 0 0 0 0 0 0 0 0 0 0 0 0 0 0 0 0 0 0
0 0 0 0 0 0 0 0 0 0 0 0 0 0 0 0 0 0 0 0 0 0 0 0 0 0 0 0 0 0 0 0 0 0 0 0 0 0 0 0 0 0 0 0
0 0 0 0 0 0 0 0 0 0 0 0 0 0 0 0 0 0 0 0 0 0 0 0 0 0 0 0 0 0 0 0 0 0 0 0 0 0 0 0 0 0 0 0
0 0 0 0 0 0 0 0 0 0 0 0 0 0 0 0 0 0 0 0 0 0 0 0 0 0 0 0 0 0 0 0 0 0 0 0 0 0 0 0 0 0 0 0
0 0 0 0 0 0 0 0 0 0 0 0 0 0 0 0 0 0 0 0 0 0 0 0 0 0 0 0 0 0 0 0 0 0 0 0 0 0 0 0 0 0 0 0
0 0 0 0 0 0 0 0 0 0 0 0 0 0 0 0 0 0 0 0 0 0 0 0 0 0 0 0 0 0 0 0 0 0 0 0 0 0 0 0 0 0 0 0
0 0 0 0 0 0 0 0 0 0 0 0 0 0 0 0 0 0 0 0 0 0 0 0 0 0 0 0 0 0 0 0 0 0 0 0 0 0 0 0 0 0 0 0
0 0 0 0 0 0 0 0 0 0 0 0 0 0 0 0 0 0 0 0 0 0 0 0 0 0 0 0 0 0 0 0 0 0 0 0 0 0 0 0 0 0 0 0
Wind_Speed
17 17 16 18 20 19 21 22 24 29 29 28 20 13 9 9 10 10 13 16 17 17 17 17 16 15 14 12 10 8 9 10 12 12 12 12 13 14 14 15 16 17 17 18
15 17 18 22 25 26 26 25 27 29 28 16 6 7 10 12 12 12 15 17 18 18 18 17 17 16 15 14 12 10 10 11 10 10 11 12 12 13 14 15 16 16 17 18
15 11 12 17 17 18 15 15 17 18 13 7 8 11 14 15 13 13 17 18 19 18 17 17 16 16 15 15 14 12 11 11 10 10 11 11 12 13 14 15 16 16 17 19
9 8 13 9 3 7 12 15 15 14 10 9 11 13 14 13 12 16 19 19 19 17 17 17 16 15 15 15 14 13 12 11 10 9 11 11 12 13 14 13 14 15 17 19
5 8 14 11 7 4 6 10 5 2 6 11 13 15 13 10 13 18 19 18 17 16 17 16 16 15 15 15 14 13 13 12 10 9 10 11 12 13 13 12 13 14 15 17
6 7 10 6 2 0 4 7 3 4 12 16 17 17 14 15 19 19 18 15 15 15 16 15 15 14 14 15 15 14 14 13 13 12 11 12 13 13 11 11 13 13 14 16
9 10 12 7 0 2 6 5 3 12 16 17 17 16 18 19 17 16 15 15 15 15 14 14 15 14 14 15 15 14 14 14 14 13 12 12 12 11 10 10 11 12 14 14
7 10 12 3 4 5 9 11 14 17 17 18 18 19 18 16 15 14 14 15 14 14 15 15 15 14 15 16 15 15 15 15 14 14 11 9 11 10 10 10 11 12 12 13
10 11 8 3 7 10 12 17 18 17 18 18 18 17 16 14 13 13 14 14 13 14 16 15 14 14 16 16 16 15 15 15 14 14 12 10 10 10 9 9 9 9 10 10
14 16 18 17 17 17 16 17 18 18 17 16 15 14 12 11 12 13 13 14 14 15 16 17 16 16 16 16 15 15 15 15 14 13 12 10 8 8 8 8 9 9 10 10
20 21 20 15 13 15 17 18 18 17 14 11 10 10 11 11 12 13 13 14 14 15 16 18 17 17 16 16 15 15 15 14 13 12 11 10 9 8 9 10 10 10 9 9
18 17 18 20 19 20 19 17 15 13 11 8 7 10 11 12 12 13 14 15 15 16 18 18 18 18 17 16 15 15 13 13 11 10 10 9 9 9 12 15 17 20 19 16
22 20 20 21 19 16 14 12 9 8 8 8 9 9 11 12 13 15 16 16 17 18 18 18 18 18 17 15 14 14 14 13 11 10 10 9 9 9 10 9 14 18 20 21
16 17 20 18 16 12 10 8 7 7 7 7 9 10 11 13 15 16 17 17 18 18 19 18 18 18 17 15 13 14 14 13 12 10 10 10 9 9 9 9 8 7 11 17
13 14 16 16 13 10 7 6 6 7 8 10 10 11 13 15 16 17 18 17 17 18 18 18 19 19 16 14 14 14 12 10 10 10 10 10 9 9 9 9 9 8 7 8
15 14 12 10 9 8 6 6 7 9 11 12 14 15 15 16 17 18 17 17 17 19 18 18 18 18 16 15 14 12 11 15 14 11 10 9 9 8 8 8 8 8 7 7
9 9 8 8 8 7 7 8 10 11 13 14 16 16 16 18 18 19 18 17 17 18 18 18 17 16 15 15 14 11 11 12 16 12 9 9 9 9 8 8 8 7 7 7
5 6 6 7 7 8 9 11 12 13 14 15 16 17 18 19 20 20 19 18 18 18 17 16 15 16 16 15 12 11 10 10 10 10 10 9 9 8 8 8 8 8 7 7
4 5 6 7 8 9 11 13 14 14 15 15 17 18 18 18 18 18 18 18 18 18 15 13 21 19 16 16 16 11 11 11 11 10 10 12 11 8 7 7 7 7 6 6
5 6 8 10 11 11 13 14 15 16 15 15 17 18 18 17 16 17 17 16 13 13 14 17 18 15 14 14 16 11 11 12 12 11 10 9 8 8 7 7 6 6 6 6
8 9 10 12 14 14 14 15 16 17 16 16 16 17 17 17 16 15 15 16 13 14 16 21 15 13 13 14 17 12 11 11 11 10 9 9 8 7 6 6 6 6 5 5
10 12 14 15 16 16 15 14 15 16 17 16 16 15 16 16 16 15 14 13 15 18 15 13 12 16 19 22 12 11 11 11 10 9 9 8 7 6 5 5 5 5 5 5
13 14 15 16 16 17 16 15 15 15 15 16 16 17 17 16 14 14 14 12 13 19 17 13 18 25 28 17 10 10 11 11 10 9 8 7 6 5 4 5 4 4 5 5
14 14 14 14 13 14 16 15 13 12 13 15 14 14 14 14 12 11 12 17 21 23 15 17 25 26 24 11 9 9 9 9 9 8 7 6 5 3 3 3 4 4 4 5
13 12 12 12 12 12 13 13 12 12 13 12 14 14 12 10 12 13 14 15 19 21 14 17 22 22 15 10 9 9 9 8 8 8 6 5 3 2 3 3 3 4 4 4
12 12 11 11 11 11 10 10 11 11 11 12 12 12 11 11 12 12 12 14 18 19 15 12 12 13 10 9 9 9 8 8 8 6 5 4 2 2 2 3 4 4 4 4
11 11 9 10 10 9 9 10 11 12 11 12 13 13 13 12 12 13 14 13 12 12 12 11 10 10 9 8 8 7 6 6 5 5 3 2 1 1 2 3 3 4 4 4
Wind_Direction
264 277 280 275 272 262 252 257 267 276 283 292 315 338 344 340 338 338 343 343 341 336 333 331 329 328 327 321 316 303 281 267 263 261 257 253 248 243 238 233 230 227 225 222
270 271 275 275 268 264 263 262 263 271 279 300 348 354 342 334 330 328 332 333 331 327 325 324 323 323 321 318 316 306 289 279 275 269 262 256 252 246 240 235 231 227 225 223
282 298 293 269 259 255 249 250 257 269 294 360 340 340 332 324 318 322 325 324 321 319 317 316 316 316 313 312 311 304 294 288 284 276 267 260 254 248 241 236 231 228 225 223
286 291 249 257 305 268 265 266 270 275 296 321 325 320 311 310 316 320 321 318 316 315 314 312 312 311 309 308 306 302 297 293 287 278 272 269 261 252 246 239 233 230 227 226
254 264 274 279 281 258 260 278 287 318 335 328 326 312 308 329 325 317 315 314 313 313 311 310 310 312 311 307 305 303 301 301 296 281 275 272 265 259 251 243 238 232 229 228
225 251 267 284 109 345 273 271 136 340 329 328 327 315 318 328 319 315 315 315 316 314 310 309 313 317 311 307 307 308 309 307 303 295 284 277 271 266 256 245 241 236 233 230
232 246 268 283 44 219 256 325 0 321 321 319 313 305 309 314 313 312 313 315 317 316 313 313 316 316 310 308 309 313 312 307 303 299 291 285 280 271 260 248 242 238 237 233
220 229 251 201 175 231 303 323 314 313 314 312 308 307 308 310 310 313 315 316 319 316 312 313 315 314 308 307 312 313 309 304 303 301 297 287 280 272 259 248 244 241 239 237
223 240 274 235 254 293 308 305 309 311 311 308 305 305 308 308 310 313 314 314 315 313 310 311 314 313 307 308 311 310 307 304 304 303 298 290 280 271 260 245 241 240 237 236
263 263 273 280 285 291 299 305 308 307 307 305 302 305 306 307 308 309 311 313 315 314 311 311 314 313 308 308 309 306 304 305 305 304 301 295 280 266 256 247 241 239 237 237
264 276 284 281 288 298 305 306 304 305 304 303 301 301 305 306 306 308 309 311 312 310 308 308 311 310 309 310 311 307 304 304 304 301 299 296 284 268 259 250 244 241 242 239
268 285 294 298 306 308 304 301 304 304 303 302 299 301 305 304 305 306 307 309 309 307 308 309 310 308 309 310 310 306 304 304 303 302 299 294 290 283 258 253 256 250 246 244
274 289 294 299 302 303 297 299 302 299 297 300 305 305 304 303 304 305 305 307 308 308 307 307 308 306 308 311 309 303 300 301 300 297 296 295 291 287 287 272 255 253 251 248
284 292 293 296 301 302 297 297 296 292 293 297 301 305 304 302 302 304 305 308 309 307 305 306 306 305 310 312 306 300 299 296 294 293 294 292 288 282 279 281 280 267 253 249
288 290 291 296 296 292 289 288 293 299 305 308 308 305 305 305 304 304 305 306 305 304 304 307 307 307 311 309 304 299 297 293 293 292 290 287 284 279 274 271 270 271 265 253
300 297 294 289 289 293 291 292 296 301 306 307 308 307 307 304 301 301 302 305 307 307 307 306 303 305 307 305 301 297 293 290 293 291 289 287 282 277 272 268 266 262 258 254
297 302 309 306 305 303 298 296 296 300 303 303 304 306 304 303 302 303 307 310 306 301 301 300 300 303 303 300 299 296 294 292 292 291 286 284 281 275 270 265 260 258 254 248
289 292 299 304 307 306 303 301 299 299 299 300 303 303 302 303 304 306 307 306 304 301 299 300 303 306 302 299 297 293 291 289 288 287 285 281 278 273 267 260 255 253 251 245
342 331 325 317 309 303 299 299 299 298 298 300 301 301 300 299 299 301 304 305 304 302 302 304 306 306 300 298 298 292 290 289 288 284 281 281 279 271 264 257 250 245 240 233
315 316 314 309 305 298 296 297 299 299 299 300 299 298 298 301 303 303 303 298 292 292 298 302 303 300 298 299 300 294 289 288 288 288 286 281 275 271 264 254 243 236 230 225
300 304 302 302 302 299 297 298 298 298 299 298 296 295 297 299 300 300 299 298 298 301 304 305 303 300 301 301 301 294 292 291 291 290 288 285 277 268 260 248 234 226 222 217
290 296 299 301 300 299 300 299 297 296 297 297 296 295 296 298 300 298 290 290 299 305 307 302 300 300 304 306 299 296 296 295 294 292 290 285 277 267 255 239 226 217 212 207
289 293 296 298 297 298 299 297 294 295 296 298 299 299 299 300 301 300 300 301 304 306 306 298 300 304 307 307 299 300 300 299 298 297 293 287 276 262 246 229 217 206 200 193
288 292 291 291 293 294 294 294 292 293 294 294 292 291 294 298 297 295 295 301 304 305 303 299 303 307 311 306 301 300 299 299 299 297 295 290 278 254 231 215 203 192 185 180
282 283 284 286 289 290 293 295 295 293 294 295 297 299 297 295 297 300 301 301 304 306 303 303 306 310 309 301 300 301 301 301 302 302 298 293 277 243 213 197 184 175 171 169
280 284 286 283 283 288 292 294 295 298 301 301 302 304 305 303 301 300 301 302 303 304 304 303 305 307 303 303 304 304 306 309 310 308 305 300 274 224 187 172 165 162 159 155
279 281 281 282 283 284 287 290 292 296 299 300 302 305 306 306 305 305 306 305 305 304 304 304 305 305 305 307 307 308 309 310 310 309 311 306 255 174 156 154 149 145 144 144